Weather History for Hurlburt Field, FL

Change the Weather History Date:

Monday, May 27, 2013

  Actual Average Record
Temperature  
Mean Temperature 72 °F -  
Max Temperature 82 °F 82 °F 95 °F (2012)
Min Temperature 62 °F 67 °F 62 °F (2005)
Cooling Degree Days 7    
Growing Degree Days 22 (Base 50)    
Moisture  
Dew Point 71 °F    
Average Humidity 89    
Maximum Humidity 100    
Minimum Humidity 67    
Precipitation  
Precipitation 0.00 in - - ()
Sea Level Pressure  
Sea Level Pressure 30.14 in    
Wind  
Wind Speed 6 mph (SE)    
Max Wind Speed 12 mph    
Max Gust Speed -    
Visibility 10 miles    
Events Rain    
Averages and records for this station are not official NWS values.
T = Trace of Precipitation, MM = Missing Value Source: NWS Daily Summary

Daily Weather History Graph

Daily Weather History Graph

Search for Another Location

Airport:

Trip Planner

Search our weather history database for the weather conditions in past years. The results will help you decide how hot, cold, wet, or windy it might be!

Date:

Astronomy

May. 27, 2013 Rise Set
Actual Time 5:46 AM CDT 7:41 PM CDT
Civil Twilight 5:19 AM CDT 8:08 PM CDT
Nautical Twilight 4:46 AM CDT 8:41 PM CDT
Astronomical Twilight 4:12 AM CDT 9:16 PM CDT
Moon 10:25 PM CDT (5/27) 8:20 AM CDT (5/27)
Length of Visible Light 14h 49m
Length of Day
13h 55m
Waning Gibbous, 91% of the Moon is Illuminated
May 27
Waning Gibbous
May 31
Last Quarter
Jun 8
New
Jun 16
First Quarter
Jun 23
Full

Hourly Weather History & Observations

Time (CDT) Temp. Heat Index Dew Point Humidity Pressure Visibility Wind Dir Wind Speed Gust Speed Precip Events Conditions
12:58 AM 73.9 °F - 73.6 °F 99% 30.16 in 10.0 mi South 5.8 mph - N/A   Scattered Clouds
1:58 AM 73.9 °F - 73.0 °F 97% 30.14 in 10.0 mi South 4.6 mph - N/A   Mostly Cloudy
2:58 AM 66.6 °F - 66.4 °F 99% 30.13 in 10.0 mi Calm Calm - N/A   Mostly Cloudy
3:58 AM 64.8 °F - 64.8 °F 100% 30.13 in 10.0 mi North 6.9 mph - N/A   Partly Cloudy
4:58 AM 64.4 °F - 64.4 °F 100% 30.14 in 10.0 mi NE 2.3 mph - N/A   Scattered Clouds
5:58 AM 62.1 °F - 62.1 °F 100% 30.15 in 10.0 mi NNE 4.6 mph - N/A   Clear
6:58 AM 66.9 °F - 66.9 °F 100% 30.17 in 10.0 mi ENE 4.6 mph - N/A   Clear
7:46 AM 73.4 °F - 73.4 °F 100% 30.17 in 10.0 mi East 6.9 mph - N/A Rain Light Rain
7:55 AM 73.4 °F - 73.4 °F 100% 30.17 in 10.0 mi East 4.6 mph - N/A   Mostly Cloudy
7:58 AM 74.3 °F - 74.3 °F 100% 30.18 in 10.0 mi East 5.8 mph - 0.00 in   Mostly Cloudy
8:58 AM 79.7 °F - 77.4 °F 93% 30.19 in 10.0 mi SE 10.4 mph - N/A   Partly Cloudy
9:58 AM 80.6 °F 85.2 °F 73.2 °F 78% 30.19 in 10.0 mi SE 8.1 mph - N/A   Clear
10:58 AM 81.3 °F 84.6 °F 69.3 °F 67% 30.19 in 10.0 mi SE 9.2 mph - N/A   Scattered Clouds
11:58 AM 81.5 °F 85.7 °F 71.4 °F 71% 30.18 in 10.0 mi Variable 6.9 mph - N/A   Clear
12:58 PM 81.7 °F 86.5 °F 72.3 °F 73% 30.17 in 10.0 mi SE 9.2 mph - N/A   Partly Cloudy
1:58 PM 82.0 °F 87.4 °F 72.9 °F 74% 30.16 in 10.0 mi SSE 9.2 mph - N/A   Clear
2:58 PM 82.4 °F 87.9 °F 73.0 °F 73% 30.14 in 10.0 mi SSE 11.5 mph - N/A   Clear
3:58 PM 81.9 °F 87.5 °F 73.6 °F 76% 30.12 in 10.0 mi South 9.2 mph - N/A   Clear
4:58 PM 81.5 °F 86.7 °F 73.4 °F 76% 30.10 in 10.0 mi South 10.4 mph - N/A   Clear
5:58 PM 80.1 °F 84.8 °F 74.5 °F 83% 30.10 in 10.0 mi South 11.5 mph - N/A   Clear
6:58 PM 77.9 °F - 73.8 °F 87% 30.10 in 10.0 mi South 8.1 mph - N/A   Clear
7:58 PM 76.3 °F - 73.9 °F 92% 30.10 in 10.0 mi South 5.8 mph - N/A   Clear
8:58 PM 75.4 °F - 72.9 °F 92% 30.10 in 10.0 mi SSE 8.1 mph - N/A   Clear
9:58 PM 74.1 °F - 71.2 °F 91% 30.11 in 10.0 mi Calm Calm - N/A   Clear
10:58 PM 68.5 °F - 68.5 °F 100% 30.12 in 10.0 mi Calm Calm - N/A   Clear
11:58 PM 65.7 °F - 65.7 °F 100% 30.12 in 10.0 mi North 2.3 mph - N/A   Clear